Showing default

IRIDIUM 148, 43255

Orbit data source: Space-Track

IRIDIUM 148, 43255 is a payload satellite owned by Iridium (US) in LEO that was launched on Fri, 30 Mar 2018 UTC via an FALCON 9 launch vehicle from the Air Force Western Test Range (AFWTR). Payloads include a variety of satellites, spacecraft, and rockets equipped with specific instruments for various scientific and technological missions. These include communications satellites like Starlink; space stations such as the ISS; scientific satellites like the Hubble; Earth observation satellites from companies like Planet Labs, Umbra, and HawkEye 360; GPS; miniature CubeSats for education and research; and military/defense satellites.

Loading next visibility...
IRIDIUM 148 details
Identifier
43255, 2018-030G
Orbit
LEO
Last TLE update10 hours ago
Origin
Flag of USIridium (US)
ManufacturerOATK SSG Gilbert
MissionOperational Commercial Communications
Bus & MotorELITEBUS, Unknown motor
Mass860 kg wet, 700 kg dry
Launch date (UTC)
2018-03-30 (7 years ago)
Launch vehicle
FALCON 9
Launch site
Air Force Western Test Range (AFWTR)
Object type
Payload
Rocket body
Debris
Shape & HBRTrap Box + 2 Pan, 9.4 m
Radar Cross Section14.423 m², Large (>1 m²)

Expand to show TLE details & history

TLE from 10 hours ago
0 IRIDIUM 148
1 43255U 18030G   24361.15675038  .00000212  00000-0  68699-4 0  9999
2 43255  86.3991 155.3725 0002042  98.7209 261.4218 14.34218364353054
Epoch: 2024-12-26T03:45Z
Definitive object data (Epoch: 2024-12-26T03:45:43.232Z)
Latitude-0.00006°
Longitude3.80218°
Altitude780.934 km
Speed7.463 km/s
True Right ascension10h 21m 29s
True Declination0° 00' 00"
Sunlit
Object was in partial shadow at TLE epoch
Visualization TLE readout
Latitude-34.92819°
Longitude1.12477°
Altitude791.938 km
Speed7.456 km/s
Apparent Right ascension06h 28m 38s
Apparent Declination-63° 49' 28"
Sunlit
Object is in daylight
Visualization observer readout
Local Sidereal Time13:00:30
Azimuth213.942° SW
Elevation-38.517°
Doppler factor1
Orbital elements
Apogee altitude776.09 km
Perigee altitude773.169 km
Semi-major axis7,152.767 km
Eccentricity0.0002042
Inclination86.3991°
RAAN155.3725°
Arg. of periapsis98.7209°
True anomaly261.39866°
Mean anomaly261.4218°
Eccentric anomaly261.41023°
Mean motion3.58783 °/min
BSTAR0.000068699
Orbital period100.34 mins
Loading maneuver chart data...
Loading historical data...
Loading historical data...
Loading historical data...
Loading historical data...
Loading historical data...
Loading historical data...
Loading historical data...

IRIDIUM 148 Visibility forecast

Observer location: undefined°, undefined

Span
Click to sort rows by Start time (UTC) header in descending order
Start Az.
Max El. time (UTC)
Max El. Az.
Max El.
End time (UTC)
End Az.
9 mins2024-12-26 22:45:47.370Z354.808° N2024-12-26 22:49:47.370Z288.204° WNW44.627°2024-12-26 22:54:47.370Z182.887° SSW
6 mins2024-12-27 10:02:47.370Z121.096° SE2024-12-27 10:05:47.370Z75.608° E21.586°2024-12-27 10:08:47.370Z35.756° NE
7 mins2024-12-27 11:42:47.370Z221.698° SW2024-12-27 11:45:47.370Z275.125° WNW31.072°2024-12-27 11:49:47.370Z340.542° N
|